{"data":{"norad_id":63556,"epoch":"2026-05-25T02:42:14.759712Z","epoch_age_seconds":72213,"freshness":"FRESH","line1":"1 63556U 25075J   26145.11267083  .00155356  00000+0  11892-2 0  9997","line2":"2 63556  43.0008  53.5346 0001908 260.2754  99.7899 15.70889373 65263","mean_motion":15.70889373,"eccentricity":0.0001908,"inclination_deg":43.0008,"raan_deg":53.5346,"arg_perigee_deg":260.2754,"mean_anomaly_deg":99.7899,"bstar":0.0011892,"rev_number":6526,"period_min":91.667817272834,"perigee_km":355.06900711748,"apogee_km":357.63888886323,"semimajor_km":6734.4909479904,"source":"CELESTRAK","updated_at":"2026-05-25T13:38:20.042279Z"}}